EFW4LY EGKK-GMMX

Flight info

Callsign EFW4LY
Flight time N/A
Altitude 35000
Route IMVUR1Z IMVUR N63 SAM M195 LORKU DCT POZOF DCT BALDA DCT BATAX DCT TOFEF/N0452F370 DCT ALAGU DCT UBESO DCT AMSEL UR722 MABAP MABAP3A
Aircraft A321/M-SDE3FGHIRWY/LB1

Departure

Time 2026-05-04 17:40
Airport London Gatwick Airport (EGKK)

Arrival

Time N/A
Airport Marrakesh Menara Airport (GMMX)
Time Latitude Longitude Altitude Speed Heading
2026-05-04 17:07 51.15477 -0.17030 205 ft 0 kts 348°
2026-05-04 17:23 51.15469 -0.17027 214 ft 4 kts 345°
2026-05-04 17:24 51.15444 -0.17012 214 ft 4 kts 320°
2026-05-04 17:24 51.15431 -0.16966 214 ft 0 kts 257°
2026-05-04 17:31 51.15429 -0.16980 213 ft 4 kts 257°
2026-05-04 17:31 51.15344 -0.17353 210 ft 14 kts 222°
2026-05-04 17:32 51.15275 -0.17642 205 ft 15 kts 257°
2026-05-04 17:33 51.15201 -0.18183 214 ft 18 kts 257°
2026-05-04 17:33 51.15179 -0.18382 205 ft 19 kts 258°
2026-05-04 17:34 51.15090 -0.19028 205 ft 21 kts 258°
2026-05-04 17:34 51.15059 -0.19237 205 ft 16 kts 240°
2026-05-04 17:35 51.14918 -0.19613 207 ft 16 kts 257°
2026-05-04 17:35 51.14867 -0.19973 213 ft 18 kts 257°
2026-05-04 17:35 51.14839 -0.20182 214 ft 20 kts 258°
2026-05-04 17:36 51.14809 -0.20408 212 ft 21 kts 258°
2026-05-04 17:36 51.14781 -0.20635 210 ft 21 kts 258°
2026-05-04 17:36 51.14746 -0.20866 209 ft 19 kts 256°
2026-05-04 17:36 51.14722 -0.21033 211 ft 6 kts 257°
2026-05-04 17:37 51.14712 -0.21106 215 ft 7 kts 257°
2026-05-04 17:37 51.14701 -0.21184 205 ft 5 kts 258°
2026-05-04 17:37 51.14699 -0.21201 205 ft 0 kts 258°
2026-05-04 17:38 51.14692 -0.21252 207 ft 11 kts 258°
2026-05-04 17:38 51.14637 -0.21332 205 ft 8 kts 178°
2026-05-04 17:38 51.14604 -0.21326 205 ft 4 kts 169°
2026-05-04 17:39 51.14541 -0.21269 211 ft 6 kts 132°
2026-05-04 17:39 51.14520 -0.21195 210 ft 12 kts 90°
2026-05-04 17:39 51.14561 -0.20873 208 ft 60 kts 77°
2026-05-04 17:40 51.14702 -0.19858 211 ft 125 kts 78°
2026-05-04 17:40 51.14919 -0.18248 358 ft 160 kts 79°
2026-05-04 17:40 51.15135 -0.16515 1063 ft 161 kts 78°
2026-05-04 17:40 51.15352 -0.14732 1592 ft 172 kts 77°
2026-05-04 17:41 51.15611 -0.12734 1783 ft 194 kts 76°
2026-05-04 17:41 51.15927 -0.10553 2052 ft 210 kts 75°
2026-05-04 17:41 51.16279 -0.08229 2399 ft 221 kts 75°
2026-05-04 17:41 51.16932 -0.06016 2920 ft 225 kts 46°
2026-05-04 17:42 51.18289 -0.04894 3093 ft 226 kts
2026-05-04 17:42 51.19819 -0.05271 3799 ft 227 kts 347°
2026-05-04 17:42 51.21331 -0.06033 4514 ft 231 kts 329°
2026-05-04 17:42 51.22439 -0.07888 5168 ft 238 kts 297°
2026-05-04 17:43 51.22740 -0.10576 5443 ft 261 kts 264°
2026-05-04 17:43 51.22442 -0.13517 5952 ft 272 kts 259°
2026-05-04 17:43 51.22084 -0.16497 6653 ft 275 kts 259°
2026-05-04 17:43 51.21712 -0.19505 7344 ft 278 kts 258°
2026-05-04 17:44 51.21338 -0.22540 8040 ft 280 kts 258°
2026-05-04 17:44 51.20964 -0.25597 8742 ft 283 kts 258°
2026-05-04 17:44 51.20594 -0.28700 9450 ft 285 kts 258°
2026-05-04 17:44 51.20225 -0.31831 9894 ft 289 kts 258°
2026-05-04 17:45 51.19856 -0.34983 9982 ft 289 kts 258°
2026-05-04 17:45 51.19467 -0.38124 10001 ft 289 kts 257°
2026-05-04 17:45 51.19058 -0.41255 10005 ft 288 kts 257°
2026-05-04 17:45 51.18642 -0.44380 10007 ft 288 kts 257°
2026-05-04 17:46 51.18226 -0.47505 10009 ft 288 kts 257°
2026-05-04 17:46 51.17813 -0.50631 10026 ft 288 kts 257°
2026-05-04 17:46 51.17331 -0.53727 10026 ft 288 kts 249°
2026-05-04 17:46 51.16550 -0.56709 10025 ft 293 kts 246°
2026-05-04 17:47 51.15740 -0.59734 10023 ft 293 kts 246°
2026-05-04 17:47 51.14923 -0.62791 10022 ft 298 kts 246°
2026-05-04 17:47 51.14101 -0.65872 10030 ft 319 kts 246°
2026-05-04 17:47 51.13203 -0.69230 10144 ft 336 kts 246°
2026-05-04 17:48 51.12264 -0.72742 10618 ft 344 kts 246°
2026-05-04 17:48 51.11322 -0.76271 11168 ft 348 kts 246°
2026-05-04 17:48 51.10372 -0.79832 11750 ft 351 kts 246°
2026-05-04 17:48 51.09409 -0.83426 12323 ft 355 kts 246°
2026-05-04 17:49 51.08446 -0.87011 12889 ft 358 kts 246°
2026-05-04 17:49 51.07460 -0.90670 13465 ft 362 kts 246°
2026-05-04 17:49 51.06461 -0.94369 13992 ft 365 kts 246°
2026-05-04 17:49 51.05455 -0.98090 14543 ft 367 kts 246°
2026-05-04 17:50 51.04447 -1.01825 15072 ft 369 kts 246°
2026-05-04 17:50 51.03429 -1.05587 15597 ft 372 kts 246°
2026-05-04 17:50 51.02401 -1.09373 16119 ft 374 kts 245°
2026-05-04 17:50 51.01363 -1.13193 16618 ft 377 kts 246°
2026-05-04 17:51 51.00315 -1.17033 17116 ft 380 kts 245°
2026-05-04 17:51 50.99256 -1.20897 17617 ft 383 kts 246°
2026-05-04 17:51 50.98189 -1.24787 18115 ft 386 kts 246°
2026-05-04 17:51 50.97110 -1.28702 18541 ft 389 kts 244°
2026-05-04 17:52 50.95756 -1.32408 18951 ft 389 kts 233°
2026-05-04 17:52 50.93984 -1.35652 19394 ft 390 kts 222°
2026-05-04 17:52 50.91862 -1.38328 19819 ft 391 kts 212°
2026-05-04 17:52 50.89581 -1.40687 20247 ft 393 kts 212°
2026-05-04 17:53 50.87293 -1.43061 20730 ft 393 kts 213°
2026-05-04 17:53 50.85001 -1.45448 21162 ft 395 kts 212°
2026-05-04 17:53 50.82698 -1.47847 21592 ft 397 kts 212°
2026-05-04 17:53 50.80411 -1.50223 22020 ft 399 kts 212°
2026-05-04 17:54 50.78084 -1.52640 22450 ft 400 kts 212°
2026-05-04 17:54 50.75748 -1.55064 22883 ft 402 kts 212°
2026-05-04 17:54 50.73403 -1.57488 23299 ft 404 kts 212°
2026-05-04 17:54 50.71046 -1.59921 23693 ft 405 kts 212°
2026-05-04 17:55 50.68678 -1.62360 24059 ft 407 kts 212°
2026-05-04 17:55 50.66303 -1.64803 24421 ft 408 kts 212°
2026-05-04 17:55 50.63952 -1.67217 24775 ft 409 kts 211°
2026-05-04 17:55 50.61561 -1.69668 25098 ft 411 kts 211°
2026-05-04 17:56 50.59150 -1.72140 25411 ft 414 kts 211°
2026-05-04 17:56 50.56729 -1.74623 25728 ft 415 kts 211°
2026-05-04 17:56 50.54308 -1.77102 26086 ft 416 kts 211°
2026-05-04 17:56 50.51873 -1.79593 26428 ft 418 kts 211°
2026-05-04 17:57 50.49432 -1.82085 26759 ft 419 kts 211°
2026-05-04 17:57 50.46983 -1.84580 27096 ft 420 kts 210°
2026-05-04 17:57 50.44529 -1.87077 27517 ft 420 kts 210°
2026-05-04 17:57 50.42077 -1.89572 27905 ft 420 kts 210°
2026-05-04 17:58 50.39622 -1.92064 28224 ft 421 kts 210°
2026-05-04 17:58 50.37157 -1.94562 28512 ft 423 kts 210°
2026-05-04 17:58 50.35515 -1.96224 28712 ft 424 kts 210°
2026-05-04 17:58 50.33028 -1.98740 29008 ft 426 kts 210°
2026-05-04 17:59 50.30539 -2.01256 29282 ft 427 kts 210°
2026-05-04 17:59 50.28034 -2.03785 29553 ft 428 kts 210°
2026-05-04 17:59 50.22191 -2.09649 30173 ft 429 kts 209°
2026-05-04 18:00 50.20483 -2.11329 30359 ft 429 kts 208°
2026-05-04 18:00 50.17954 -2.13793 30600 ft 429 kts 208°
2026-05-04 18:00 50.15417 -2.16247 30828 ft 429 kts 208°
2026-05-04 18:00 50.12871 -2.18703 31045 ft 430 kts 208°
2026-05-04 18:01 50.10323 -2.21162 31266 ft 431 kts 209°
2026-05-04 18:01 50.07807 -2.23596 31481 ft 432 kts 209°
2026-05-04 18:01 50.05222 -2.26103 31703 ft 432 kts 209°
2026-05-04 18:02 50.00137 -2.31024 32143 ft 434 kts 209°
2026-05-04 18:02 49.97569 -2.33503 32356 ft 435 kts 209°
2026-05-04 18:02 49.94993 -2.35986 32558 ft 436 kts 209°
2026-05-04 18:02 49.92322 -2.38176 32768 ft 434 kts 202°
2026-05-04 18:03 49.89563 -2.40096 32991 ft 434 kts 202°
2026-05-04 18:03 49.86807 -2.42012 33186 ft 435 kts 202°
2026-05-04 18:03 49.84043 -2.43940 33399 ft 435 kts 202°
2026-05-04 18:03 49.81280 -2.45871 33601 ft 436 kts 203°
2026-05-04 18:04 49.78512 -2.47805 33809 ft 437 kts 203°
2026-05-04 18:04 49.75742 -2.49738 33998 ft 437 kts 203°
2026-05-04 18:04 49.70191 -2.53593 34357 ft 437 kts 203°
2026-05-04 18:05 49.67418 -2.55515 34568 ft 436 kts 203°
2026-05-04 18:05 49.64688 -2.57404 34720 ft 436 kts 203°
2026-05-04 18:05 49.61919 -2.59318 34884 ft 436 kts 203°
2026-05-04 18:06 49.53628 -2.65043 35002 ft 434 kts 203°
2026-05-04 18:06 49.48109 -2.68841 35015 ft 434 kts 203°
2026-05-04 18:07 49.42570 -2.72636 35002 ft 437 kts 203°
2026-05-04 18:07 49.37013 -2.76440 35002 ft 437 kts 203°
2026-05-04 18:08 49.31454 -2.80228 35003 ft 437 kts 202°
2026-05-04 18:08 49.25895 -2.84011 35013 ft 437 kts 202°
2026-05-04 18:09 49.14772 -2.91562 35021 ft 437 kts 202°
2026-05-04 18:10 49.09252 -2.95299 35022 ft 437 kts 202°
2026-05-04 18:10 49.03688 -2.99044 35025 ft 437 kts 202°
2026-05-04 18:11 48.98134 -3.02785 35029 ft 436 kts 202°
2026-05-04 18:11 48.92581 -3.06518 35028 ft 436 kts 202°
2026-05-04 18:12 48.87020 -3.10239 35018 ft 437 kts 202°
2026-05-04 18:12 48.81441 -3.13957 35011 ft 438 kts 202°
2026-05-04 18:13 48.75843 -3.17678 35014 ft 439 kts 202°
2026-05-04 18:14 48.67449 -3.23266 35017 ft 440 kts 202°
2026-05-04 18:14 48.61841 -3.26980 35018 ft 440 kts 202°
2026-05-04 18:15 48.50665 -3.34349 35019 ft 440 kts 202°
2026-05-04 18:16 48.45057 -3.38026 35018 ft 439 kts 202°
2026-05-04 18:16 48.39446 -3.41699 35013 ft 439 kts 202°
2026-05-04 18:17 48.31029 -3.47209 35005 ft 441 kts 202°
2026-05-04 18:18 48.22576 -3.52721 35000 ft 442 kts 202°
2026-05-04 18:18 48.16929 -3.56391 34998 ft 443 kts 202°
2026-05-04 18:19 48.08456 -3.61881 35006 ft 442 kts 202°
2026-05-04 18:19 48.02808 -3.65531 35004 ft 442 kts 202°
2026-05-04 18:20 47.97158 -3.69166 35004 ft 442 kts 202°
2026-05-04 18:20 47.91505 -3.72779 35018 ft 441 kts 202°
2026-05-04 18:21 47.85866 -3.76392 35017 ft 441 kts 202°
2026-05-04 18:21 47.80236 -3.80002 35026 ft 440 kts 202°
2026-05-04 18:22 47.74639 -3.83574 35017 ft 440 kts 202°
2026-05-04 18:22 47.69008 -3.87153 35025 ft 440 kts 202°
2026-05-04 18:23 47.63387 -3.90725 35021 ft 439 kts 202°
2026-05-04 18:23 47.57764 -3.94288 35020 ft 439 kts 202°
2026-05-04 18:24 47.52141 -3.97839 35016 ft 439 kts 201°
2026-05-04 18:24 47.46517 -4.01381 35026 ft 439 kts 201°
2026-05-04 18:25 47.40905 -4.04916 35022 ft 439 kts 201°
2026-05-04 18:25 47.35287 -4.08440 35022 ft 438 kts 201°
2026-05-04 18:26 47.29702 -4.11921 35020 ft 438 kts 201°
2026-05-04 18:26 47.24083 -4.15436 35030 ft 439 kts 201°
2026-05-04 18:27 47.18448 -4.18965 35016 ft 440 kts 201°
2026-05-04 18:27 47.12803 -4.22467 35016 ft 441 kts 201°
2026-05-04 18:28 47.07150 -4.25963 35021 ft 441 kts 201°
2026-05-04 18:28 47.01459 -4.29304 35019 ft 440 kts 199°
2026-05-04 18:29 46.95714 -4.32397 35021 ft 440 kts 199°
2026-05-04 18:29 46.89966 -4.35465 35023 ft 440 kts 199°
2026-05-04 18:30 46.81406 -4.40124 35028 ft 439 kts 199°
2026-05-04 18:31 46.75686 -4.43247 35025 ft 439 kts 199°
2026-05-04 18:31 46.69964 -4.46352 35022 ft 438 kts 199°
2026-05-04 18:32 46.64247 -4.49450 35023 ft 438 kts 199°
2026-05-04 18:32 46.58532 -4.52546 35017 ft 438 kts 199°
2026-05-04 18:33 46.52852 -4.55616 35020 ft 438 kts 199°
2026-05-04 18:33 46.47134 -4.58688 35025 ft 438 kts 199°
2026-05-04 18:34 46.41418 -4.61747 35021 ft 438 kts 199°
2026-05-04 18:34 46.35703 -4.64807 35021 ft 437 kts 199°
2026-05-04 18:35 46.29991 -4.67874 35022 ft 437 kts 199°
2026-05-04 18:35 46.24288 -4.70925 35021 ft 437 kts 199°
2026-05-04 18:36 46.18583 -4.73958 35025 ft 436 kts 199°
2026-05-04 18:36 46.12883 -4.76981 35024 ft 436 kts 199°
2026-05-04 18:37 46.07216 -4.79978 35034 ft 436 kts 200°
2026-05-04 18:37 46.01517 -4.82999 35027 ft 436 kts 200°
2026-05-04 18:38 45.95816 -4.86007 35027 ft 436 kts 200°
2026-05-04 18:38 45.90116 -4.88998 35025 ft 436 kts 199°
2026-05-04 18:39 45.84410 -4.91989 35024 ft 436 kts 200°
2026-05-04 18:39 45.78711 -4.94989 35022 ft 436 kts 200°
2026-05-04 18:40 45.73019 -4.97976 35022 ft 436 kts 200°
2026-05-04 18:40 45.67329 -5.00956 35024 ft 436 kts 200°
2026-05-04 18:41 45.61667 -5.03900 35026 ft 435 kts 200°
2026-05-04 18:41 45.55974 -5.06844 35032 ft 435 kts 200°
2026-05-04 18:42 45.50283 -5.09800 35035 ft 435 kts 200°
2026-05-04 18:42 45.44585 -5.12752 35027 ft 436 kts 200°
2026-05-04 18:43 45.38887 -5.15696 35023 ft 435 kts 200°
2026-05-04 18:43 45.33191 -5.18624 35024 ft 435 kts 200°
2026-05-04 18:44 45.27491 -5.21549 35026 ft 435 kts 200°
2026-05-04 18:44 45.21793 -5.24474 35024 ft 435 kts 200°
2026-05-04 18:45 45.16091 -5.27392 35026 ft 435 kts 200°
2026-05-04 18:45 45.10399 -5.30298 35025 ft 435 kts 200°
2026-05-04 18:46 45.04700 -5.33207 35024 ft 435 kts 200°
2026-05-04 18:46 44.99045 -5.36083 35037 ft 435 kts 200°
2026-05-04 18:47 44.93341 -5.38979 35025 ft 436 kts 200°
2026-05-04 18:47 44.87624 -5.41873 35023 ft 437 kts 200°
2026-05-04 18:48 44.82861 -5.44271 35018 ft 437 kts 200°
2026-05-04 18:48 44.77131 -5.47158 35023 ft 437 kts 200°
2026-05-04 18:49 44.71403 -5.50062 35023 ft 438 kts 200°
2026-05-04 18:49 44.65668 -5.52958 35026 ft 438 kts 200°
2026-05-04 18:50 44.59923 -5.55797 35031 ft 438 kts 199°
2026-05-04 18:50 44.54062 -5.58189 35035 ft 439 kts 195°
2026-05-04 18:51 44.48143 -5.60317 35036 ft 439 kts 195°
2026-05-04 18:51 44.42235 -5.62489 35034 ft 439 kts 196°
2026-05-04 18:52 44.36384 -5.64726 35039 ft 439 kts 197°
2026-05-04 18:52 44.30496 -5.67008 35044 ft 439 kts 196°
2026-05-04 18:53 44.24605 -5.69265 35038 ft 439 kts 197°
2026-05-04 18:53 44.18708 -5.71511 35047 ft 439 kts 197°
2026-05-04 18:54 44.12794 -5.73756 35045 ft 440 kts 197°
2026-05-04 18:54 44.06875 -5.75990 35043 ft 441 kts 197°
2026-05-04 18:55 44.00947 -5.78234 35045 ft 441 kts 197°
2026-05-04 18:55 43.92059 -5.81595 35059 ft 442 kts 197°
2026-05-04 18:56 43.86128 -5.83824 35050 ft 442 kts 197°
2026-05-04 18:56 43.80232 -5.86035 35062 ft 442 kts 197°
2026-05-04 18:57 43.74300 -5.88262 35070 ft 442 kts 197°
2026-05-04 18:57 43.68364 -5.90485 35068 ft 442 kts 197°
2026-05-04 18:58 43.62436 -5.92702 35071 ft 442 kts 197°
2026-05-04 18:58 43.56502 -5.94912 35076 ft 442 kts 197°
2026-05-04 18:59 43.50568 -5.97115 35076 ft 441 kts 197°
2026-05-04 18:59 43.44642 -5.99316 35070 ft 441 kts 198°